NOAA NWS Hourly Roundups by Site

Regional Weather Roundup for Omaha, NE

To Select Another Site Choose from List

Select Site:  

000
ASUS43 KOAX 230402
RWRNE

WEATHER ROUNDUP FOR NEBRASKA
NATIONAL WEATHER SERVICE OMAHA NE
1000 PM CST THU FEB 22 2024

NOTES: SATELLITE DATA IS BEING USED TO AUGMENT CLOUD COVER ABOVE
       12000 FEET.
       "FAIR" INDICATES FEW OR NO CLOUDS BELOW 12,000 FEET WITH NO
       SIGNIFICANT WEATHER AND/OR OBSTRUCTIONS TO VISIBILITY.


NEZ001>004-019>022-054>056-230500-
NEBRASKA PANHANDLE

CITY           SKY/WX    TMP DP  RH WIND       PRES   REMARKS
SCOTTSBLUFF    CLEAR     35  27  72 NW7       30.11R WCI  29
ALLIANCE       PTCLDY    27  24  89 W15       30.08R WCI  15
CHADRON        PTCLDY    32  25  75 SW8       30.06R WCI  25
SIDNEY         CLEAR     34  26  72 W12       30.10R WCI  25
$$

NEZ057>060-069>072-079>082-230500-
SOUTHWEST NEBRASKA

CITY           SKY/WX    TMP DP  RH WIND       PRES   REMARKS
NORTH PLATTE   CLEAR     30  26  85 W5        30.04S WCI  25
IMPERIAL       CLEAR     38  30  73 W13       30.09R WCI  30
MCCOOK         CLEAR     43  31  62 W13       30.07R
$$

NEZ005>010-023>029-035>040-094-230500-
NORTH CENTRAL NEBRASKA

CITY           SKY/WX    TMP DP  RH WIND       PRES   REMARKS
VALENTINE      CLEAR     35  26  69 W8        30.00S WCI  29
AINSWORTH      CLEAR     35  27  70 W7        29.99S WCI  29
BROKEN BOW     CLEAR     39  27  62 NW6       30.01S WCI  35
ORD            CLEAR    N/A N/A N/A NW3       29.99S
$$

NEZ041-046>049-061>064-073>077-083>087-230500-
SOUTH CENTRAL NEBRASKA

CITY           SKY/WX    TMP DP  RH WIND       PRES   REMARKS
GRAND ISLAND   CLEAR     35  26  69 W7        30.01R WCI  29
AURORA         CLEAR     35  27  73 W6        30.00R WCI  29
HASTINGS       CLEAR     37  26  64 W6        30.01R WCI  32
KEARNEY        CLEAR     37  25  61 NW9       30.02S WCI  30
$$

NEZ011>018-030>034-042>045-230500-
NORTHEAST NEBRASKA

CITY           SKY/WX    TMP DP  RH WIND       PRES   REMARKS
NORFOLK        CLEAR     39  28  64 W7        29.96S WCI  34
ALBION         CLEAR     32  25  77 CALM      29.99S
BLAIR          CLEAR     40  30  69 NW6       29.95R
COLUMBUS       CLEAR     35  27  72 W3        29.99S
FREMONT        CLEAR     38  28  68 W5        29.96S WCI  34
TEKAMAH        CLEAR     40  29  64 NW10      29.95S WCI  33
$$

NEZ050>053-065>068-078-088>093-230500-
SOUTHEAST NEBRASKA

CITY           SKY/WX    TMP DP  RH WIND       PRES   REMARKS
LINCOLN        CLEAR     39  28  64 NW3       29.98S
OMAHA EPPLEY   CLEAR     37  29  72 N8        29.95R WCI  31
BEATRICE       PTCLDY    34  29  80 NW9         N/A  WCI  27
FALLS CITY     PTCLDY    46  32  58 NW9       29.94R
NEBRASKA CITY  CLEAR     44  31  59 NW12      29.95R
$$

NEZ044-045-051>053-067-230500-
OMAHA AREA

CITY           SKY/WX    TMP DP  RH WIND       PRES   REMARKS
OMAHA EPPLEY   CLEAR     37  29  72 N8        29.95R WCI  31
BLAIR          CLEAR     40  30  69 NW6       29.95R
FREMONT        CLEAR     38  28  68 W5        29.96S WCI  34
OFFUTT AFB     CLEAR     46  29  53 W9        29.93S
WAHOO          CLEAR     40  30  66 NW10      29.96S WCI  34
$$


 

View Past Reports for Omaha, NE.

Products Courtesy of NOAA-NWS
NWS Information Parsing Script by Ken True at Saratoga Weather - Script by SE Lincoln Weather.

This data is offered only as a general guide to local weather conditions. It should not be relied upon in lieu of officially disseminated weather information for determining possible risk to persons or property. This site, including all information contained therein, is made available as is without warranties of any kind, either express or implied. The Vicarage Weather Feed© includes links to other sites for user convenience only. The content of any linked third-party site is not controlled by The Vicarage Weather Feed©. Access to any third-party website through The Vicarage Weather Feed©, regardless of whether or not the third-party site is a linked site, is entirely at the users own risk. Externally sourced content or material is excluded from The Vicarage Weather Feed© copyright and is the copyright and property of the respective provider. Skywarn® and the Skywarn® logo are registered trademarks of the National Oceanic and Atmospheric Administration, used with permission.